AirNav   Everest Fuels
 
 1171 users online  

3UT8 Little Sahara Medical Helipad #1 Heliport
Little Sahara Recreation Area, Utah, USA

GOING TO LITTLE SAHARA RECREATION AREA?


FAA INFORMATION EFFECTIVE 13 AUGUST 2020

Location

FAA Identifier: 3UT8
Lat/Long: 39-43-34.8800N 112-18-19.9100W
39-43.581333N 112-18.331833W
39.7263556,-112.3055306
(estimated)
Elevation: 5228 ft. / 1593 m (estimated)
Time zone: UTC -6 (UTC -7 during Standard Time)
Zip code: 84080

Heliport Operations

Heliport use: Private use. Permission required prior to landing
Activation date: 02/2015
Control tower: no
ARTCC: SALT LAKE CITY CENTER
FSS: CEDAR CITY FLIGHT SERVICE STATION
Attendance: 
Wind indicator: yes
Segmented circle: no

Nearby radio navigation aids

VOR radial/distance  VOR name  Freq  Var
DTAr004/27.1DELTA VORTAC116.1016E
FFUr191/36.9FAIRFIELD VORTAC116.6016E
PVUr208/39.8PROVO VOR/DME108.4015E

Heliport Services

Runway Information

Helipad H1

Dimensions: 50 x 50 ft. / 15 x 15 m
Surface: concrete
Runway edge lights: low intensity
Latitude: 39-43.581333N
Longitude: 112-18.331833W
Traffic pattern: leftleft

Heliport Ownership and Management from official FAA records

Ownership: Privately-owned
Owner: US BUREAU OF LAND MANAGEMENT
95 EAST 500 NORTH
FILLMORE, UT 84631
Phone 435-743-3100
Manager: MICHAEL GATES
95 EAST 500 NORTH
FILLMORE, UT 84631
Phone 435-743-3100
OUTDOOR RECREATION PLANNER FOR LITTLE SAHARA - 435-743-3124 - BLM_UT_LITTLESAHARA@BLM.GOV

Additional Remarks

FOR CD CTC SALT LAKE ARTCC AT 801-320-2568.

Instrument Procedures

There are no published instrument procedures at 3UT8.

Some nearby airports with instrument procedures:

U14 - Nephi Municipal Airport (20 nm E)
KDTA - Delta Municipal Airport (22 nm SW)
KSPK - Spanish Fork Airport Springville-Woodhouse Field (39 nm NE)
41U - Manti-Ephraim Airport (40 nm SE)
KPVU - Provo Municipal Airport (40 nm NE)
 
Loc | Ops | Rwys | IFR | FBO | Links
Com | Nav | Svcs | Stats | Notes
Aerial photo
No photo
 
Airport distance calculator
Flying to Little Sahara Medical Helipad #1 Heliport? Find the distance to fly.

From to 3UT8

Sunrise and sunset
Times for 14-Aug-2020
 Local
(UTC-6)
 Zulu
(UTC)
Morning civil twilight06:1312:13
Sunrise06:4212:42
Sunset20:2502:25
Evening civil twilight20:5402:54

Current date and time
Zulu (UTC)  14-Aug-2020 22:45:22
Local (UTC-6)  14-Aug-2020 16:45:22
 
METAR
KDTA 
27nm S 
142235Z AUTO 31007G14KT 10SM CLR 35/M06 A3016 RMK AO1
K41U 
40nm SE 
142235Z AUTO 29007KT 10SM CLR 34/M05 A3021 RMK AO1 T03361049
KPVU 
40nm NE 
142156Z 30005KT 10SM SCT210 32/01 A3017 RMK AO2 SLP160 T03220006
KDPG 
41nm NW 
132255Z 29003KT 40SM FEW130 FEW180 37/M06 A3003 RMK SLP114 T03651063 LAST
TAF
KPVU 
40nm NE 
141750Z 1418/1518 29006KT P6SM FEW250 FM142300 31008KT P6SM FEW250 FM150300 VRB05KT P6SM SKC
NOTAMs
Click for the latest NOTAMs
NOTAMs are issued by the DoD/FAA and will open in a separate window not controlled by AirNav.

 

 
 

Would you like to see your business listed on this page?

 If your business provides an interesting product or service to pilots, flight crews, aircraft, or users of the Little Sahara Medical Helipad #1 Heliport, you should consider listing it here.  To start the listing process, click on the button below
 
Add a business
 

Other Pages about Little Sahara Medical Helipad #1 Heliport

Update a link
 
Copyright © AirNav, LLC. All rights reserved. Privacy Policy  Contact